• MPC Preparation (Info)

  • MPEC 2005-L02 : 2005 KJ10

    The following Minor Planet Electronic Circular may be linked-to from your own Web pages, but must not otherwise be redistributed electronically.

    A form allowing access to any MPEC is at the bottom of this page.


    Read MPEC 2005-L01 Read MPEC 2005-L03


    M.P.E.C. 2005-L02                                Issued 2005 June 1, 17:53 UT
    
         The Minor Planet Electronic Circulars contain information on unusual
             minor planets and routine data on comets.  They are published
       on behalf of Commission 20 of the International Astronomical Union by the
              Minor Planet Center, Smithsonian Astrophysical Observatory,
                              Cambridge, MA 02138, U.S.A.
    
                      Supported in part by the Brinson Foundation
                 Prepared using the Tamkin Foundation Computer Network
    
                                  MPC@CFA.HARVARD.EDU
              URL http://cfa-www.harvard.edu/iau/mpc.html  ISSN 1523-6714
    
                                       2005 KJ10
    
    Observations:
         K05K10J* C2005 05 31.21796 12 53 38.38 +33 04 32.8          18.7   EL002704
         K05K10J  C2005 05 31.22825 12 53 22.61 +33 06 13.7          18.7   EL002704
         K05K10J  C2005 05 31.23859 12 53 06.82 +33 07 54.9          18.3   EL002704
         K05K10J  C2005 05 31.24890 12 52 50.98 +33 09 34.8          19.1   EL002704
         K05K10J  C2005 05 31.84417 12 37 09.06 +34 49 28.5          18.5 R EL002143
         K05K10J  C2005 05 31.84611 12 37 05.70 +34 49 48.7          18.0 R EL002143
         K05K10J  C2005 05 31.84927 12 37 00.28 +34 50 20.9          18.5 R EL002143
         K05K10J  C2005 05 31.85173 12 36 55.96 +34 50 45.2          18.3 R EL002143
         K05K10J 3C2005 06 01.12930 12 28 52.48 +35 38 16.4          17.9 V EL002H06
         K05K10J 3C2005 06 01.13427 12 28 43.22 +35 39 06.7          18.4 V EL002H06
         K05K10J 3C2005 06 01.13944 12 28 33.54 +35 39 58.8          18.4 V EL002H06
         K05K10J  C2005 06 01.14964 12 28 15.20 +35 41 45.7          17.3 R EL002651
         K05K10J  C2005 06 01.15030 12 28 13.98 +35 41 52.4          17.3 R EL002651
         K05K10J  C2005 06 01.15117 12 28 12.35 +35 42 01.3          17.4 R EL002651
         K05K10J 2C2005 06 01.31137 12 23 09.28 +36 08 01.5          17.8 R EL002H06
         K05K10J 2C2005 06 01.31390 12 23 04.33 +36 08 29.4          17.9 R EL002H06
         K05K10J 2C2005 06 01.31632 12 22 59.86 +36 08 53.4          18.0 R EL002H06
    
    Observer details:
    143 Gnosca.  Observer S. Sposetti.  0.40-m f/4 reflector + CCD.
    651 Grasslands Observatory, Tucson.  Observer J. E. McGaha.  0.62-m f/5.1
        Newtonian reflector + CCD.
    704 Lincoln Laboratory ETS, New Mexico.  Observers M. Blythe, F. Shelly,
        M. Bezpalko, R. Huber, L. Manguso, D. Torres, R. Kracke, M. McCleary,
        H. Stange, A. Milner.  Measurers J. Stuart, R. Sayer, J. Evans, J. Kommers.
        1.0-m f/2.15 reflector + CCD.
    H06 New Mexico Skies Observatory.  Observers J. Sue, R. Hutsebaut.  0.25-m
        reflector + CCD.
    
    Orbital elements:
    2005 KJ10                                                            PHA 0.026
    Epoch 2005 May 30.0 TT = JDT 2453520.5                  MPC
    M 342.07741              (2000.0)            P               Q
    n   0.37322470     Peri.  233.73618     +0.70067893     +0.69918941
    a   1.9105385      Node    81.41345     -0.59983376     +0.68509602
    e   0.5857102      Incl.    8.26073     -0.38632693     +0.20439571
    P   2.64           H   21.4           G   0.15
    From 16 observations 2005 May 31-June 1.
    
    Ephemeris:
    2005 KJ10                a,e,i = 1.91, 0.59, 8                   q = 0.7915
    Date    TT    R. A. (2000) Decl.     Delta      r     Elong.  Phase     V
    2005 05 30    13 20.12   +29 49.1    0.0710   1.042   111.5    64.8    18.0
    2005 05 31    12 58.97   +32 28.4    0.0655   1.033   105.6    70.9    18.0
    2005 06 01    12 32.73   +35 16.2    0.0607   1.025    98.8    77.8    18.1
    2005 06 02    12 00.25   +38 01.4    0.0567   1.017    91.1    85.8    18.2
    2005 06 03    11 20.79   +40 24.7    0.0536   1.009    82.4    94.6    18.4
    2005 06 04    10 34.84   +42 00.1    0.0517   1.000    72.9   104.3    18.8
    2005 06 05    09 45.00   +42 23.5    0.0511   0.992    62.9   114.5    19.4
    2005 06 06    08 55.58   +41 26.3    0.0518   0.984    53.0   124.6    20.2
    2005 06 07    08 10.71   +39 21.3    0.0538   0.977    43.4   134.4    21.2
    2005 06 08    07 32.57   +36 34.8    0.0570   0.969    34.7   143.4    22.4
    2005 06 09    07 01.38   +33 33.0    0.0612   0.961    26.9   151.5    24.0
    
    Timothy B. Spahr             (C) Copyright 2005 MPC           M.P.E.C. 2005-L02
    

    Read MPEC 2005-L01 Read MPEC 2005-L03


    MPEC number:

    Enter an MPEC number in one of the following forms:

    • 1997-B01 (the full form)
    • J97B01 (the packed version of the full form)
    • B01 (the abbreviated form)